| time (UTC) | temp F | wind direction | speed MPH | gust MPH | rain 1hr in | rain 24hr in | rain mn in | humidity % | barometer mb |
| 20260509021948 | 40 | 293 | 2.0 | 14.0 | 0.00 | 0.00 | 0.00 | 69 | 1019.3 |
| 20260509021438 | 41 | 270 | 4.0 | 9.0 | 0.00 | 0.00 | 0.00 | 68 | 1019.1 |
| 20260509020928 | 40 | 248 | 4.0 | 9.0 | 0.00 | 0.00 | 0.00 | 69 | 1019.1 |
| 20260509020418 | 40 | 248 | 2.0 | 9.0 | 0.00 | 0.00 | 0.00 | 69 | 1018.9 |
| 20260509015907 | 40 | 203 | 2.0 | 9.0 | 0.00 | 0.00 | 0.00 | 70 | 1018.9 |
| 20260509015400 | 40 | 225 | 3.0 | 11.0 | 0.00 | 0.00 | 0.00 | 70 | 1018.8 |
| 20260509014847 | 40 | 203 | 2.0 | 11.0 | 0.00 | 0.00 | 0.00 | 70 | 1018.4 |
| 20260509014337 | 40 | 225 | 0.0 | 9.0 | 0.00 | 0.00 | 0.00 | 73 | 1018.3 |
| 20260509013827 | 40 | 248 | 2.0 | 9.0 | 0.00 | 0.00 | 0.00 | 75 | 1018.5 |
| 20260509012256 | 40 | 225 | 2.0 | 11.0 | 0.00 | 0.00 | 0.00 | 78 | 1018.2 |
| 20260509011746 | 40 | 248 | 0.0 | 11.0 | 0.00 | 0.00 | 0.00 | 79 | 1018.2 |
| 20260509011237 | 40 | 225 | 5.0 | 11.0 | 0.00 | 0.00 | 0.00 | 78 | 1018.1 |
| 20260509010726 | 40 | 90 | 2.0 | 13.0 | 0.00 | 0.00 | 0.00 | 81 | 1017.8 |
| 20260509010217 | 40 | 248 | 3.0 | 14.0 | 0.00 | 0.00 | 0.00 | 83 | 1018.0 |
| 20260509005706 | 40 | 225 | 7.0 | 14.0 | 0.00 | 0.00 | 0.00 | 83 | 1017.6 |
| 20260509005157 | 40 | 270 | 2.0 | 11.0 | 0.00 | 0.00 | 0.00 | 81 | 1017.4 |
| 20260509004645 | 40 | 225 | 1.0 | 13.0 | 0.00 | 0.00 | 0.00 | 80 | 1017.4 |
| 20260509004136 | 40 | 203 | 4.0 | 13.0 | 0.00 | 0.00 | 0.00 | 77 | 1017.5 |
| 20260509003625 | 40 | 248 | 2.0 | 11.0 | 0.00 | 0.00 | 0.00 | 79 | 1017.0 |
| 20260509003117 | 40 | 203 | 2.0 | 17.0 | 0.00 | 0.00 | 0.00 | 79 | 1017.1 |
| 20260509002605 | 40 | 248 | 8.0 | 17.0 | 0.00 | 0.00 | 0.00 | 79 | 1017.3 |
| 20260509002055 | 40 | 203 | 4.0 | 16.0 | 0.00 | 0.00 | 0.00 | 79 | 1016.9 |
| 20260509001035 | 40 | 248 | 4.0 | 13.0 | 0.00 | 0.00 | 0.00 | 78 | 1016.9 |
| 20260509000525 | 41 | 203 | 3.0 | 15.0 | 0.00 | 0.00 | 0.00 | 77 | 1016.6 |
| 20260509000015 | 41 | 225 | 5.0 | 16.0 | 0.00 | 0.00 | 0.00 | 77 | 1016.6 |
| 20260508235504 | 41 | 203 | 6.0 | 16.0 | 0.00 | 0.00 | 0.00 | 77 | 1016.5 |
| 20260508234955 | 42 | 248 | 4.0 | 14.0 | 0.00 | 0.00 | 0.00 | 77 | 1016.5 |
| 20260508233934 | 42 | 203 | 4.0 | 18.0 | 0.00 | 0.00 | 0.00 | 75 | 1016.3 |
| 20260508233424 | 42 | 225 | 5.0 | 18.0 | 0.00 | 0.00 | 0.00 | 75 | 1016.2 |
| 20260508232914 | 42 | 225 | 12.0 | 20.0 | 0.00 | 0.00 | 0.00 | 75 | 1016.0 |
| 20260508232404 | 43 | 203 | 12.0 | 22.0 | 0.00 | 0.00 | 0.00 | 75 | 1015.6 |
| 20260508231854 | 43 | 248 | 11.0 | 22.0 | 0.00 | 0.00 | 0.00 | 74 | 1015.4 |
| 20260508231344 | 43 | 203 | 5.0 | 18.0 | 0.00 | 0.00 | 0.00 | 73 | 1015.4 |
| 20260508230834 | 43 | 225 | 10.0 | 18.0 | 0.00 | 0.00 | 0.00 | 72 | 1015.2 |
| 20260508230323 | 44 | 225 | 11.0 | 17.0 | 0.00 | 0.00 | 0.00 | 70 | 1015.0 |
| 20260508225306 | 46 | 225 | 6.0 | 13.0 | 0.00 | 0.00 | 0.00 | 63 | 1014.0 |
| 20260508224753 | 47 | 225 | 6.0 | 11.0 | 0.00 | 0.00 | 0.00 | 62 | 1013.9 |
| 20260508224243 | 48 | 180 | 7.0 | 11.0 | 0.00 | 0.00 | 0.00 | 60 | 1013.7 |
| 20260508223733 | 49 | 158 | 7.0 | 9.0 | 0.00 | 0.00 | 0.00 | 56 | 1013.4 |
| 20260508222712 | 50 | 225 | 1.0 | 7.0 | 0.00 | 0.00 | 0.00 | 53 | 1013.0 |
| 20260508222203 | 50 | 203 | 3.0 | 7.0 | 0.00 | 0.00 | 0.00 | 52 | 1012.8 |
| 20260508221653 | 50 | 203 | 0.0 | 6.0 | 0.00 | 0.00 | 0.00 | 52 | 1012.6 |
| 20260508221143 | 50 | 158 | 0.0 | 4.0 | 0.00 | 0.00 | 0.00 | 52 | 1012.6 |
| 20260508220633 | 50 | 203 | 0.0 | 6.0 | 0.00 | 0.00 | 0.00 | 52 | 1012.1 |
| 20260508220123 | 50 | 203 | 0.0 | 6.0 | 0.00 | 0.00 | 0.00 | 52 | 1012.1 |
| 20260508215612 | 50 | 180 | 0.0 | 6.0 | 0.00 | 0.00 | 0.00 | 51 | 1012.1 |
| 20260508215102 | 51 | 180 | 0.0 | 7.0 | 0.00 | 0.00 | 0.00 | 51 | 1012.0 |
| 20260508214551 | 51 | 203 | 0.0 | 7.0 | 0.00 | 0.00 | 0.00 | 50 | 1011.9 |
| 20260508214041 | 51 | 158 | 0.0 | 7.0 | 0.00 | 0.00 | 0.00 | 50 | 1012.0 |
| 20260508213532 | 52 | 180 | 0.0 | 7.0 | 0.00 | 0.00 | 0.00 | 49 | 1011.6 |
| 20260508213021 | 52 | 158 | 4.0 | 7.0 | 0.00 | 0.00 | 0.00 | 48 | 1011.6 |
| 20260508212511 | 52 | 180 | 0.0 | 4.0 | 0.00 | 0.00 | 0.00 | 48 | 1011.5 |
| 20260508212001 | 53 | 135 | 0.0 | 6.0 | 0.00 | 0.00 | 0.00 | 47 | 1011.1 |
| 20260508211451 | 53 | 135 | 0.0 | 6.0 | 0.00 | 0.00 | 0.00 | 47 | 1011.0 |
| 20260508210942 | 53 | 203 | 0.0 | 7.0 | 0.00 | 0.00 | 0.00 | 46 | 1010.9 |
| 20260508210431 | 54 | 158 | 4.0 | 7.0 | 0.00 | 0.00 | 0.00 | 44 | 1010.7 |
| 20260508205921 | 55 | 180 | 2.0 | 6.0 | 0.00 | 0.00 | 0.00 | 44 | 1010.6 |
| 20260508205410 | 57 | 158 | 0.0 | 0.0 | 0.00 | 0.00 | 0.00 | 41 | 1010.6 |
| 20260508204902 | 58 | 203 | 0.0 | 0.0 | 0.00 | 0.00 | 0.00 | 36 | 1010.7 |
| 20260508204350 | 58 | 248 | 0.0 | 0.0 | 0.00 | 0.00 | 0.00 | 36 | 1010.4 |
| 20260508203331 | 57 | 293 | 0.0 | 0.0 | 0.00 | 0.00 | 0.00 | 38 | 1010.4 |
| 20260508202820 | 58 | 203 | 0.0 | 0.0 | 0.00 | 0.00 | 0.00 | 37 | 1010.5 |
| 20260508202310 | 58 | 225 | 0.0 | 0.0 | 0.00 | 0.00 | 0.00 | 36 | 1010.3 |
| 20260508201800 | 58 | 248 | 0.0 | 0.0 | 0.00 | 0.00 | 0.00 | 36 | 1010.1 |
| 20260508201250 | 58 | 158 | 0.0 | 4.0 | 0.00 | 0.00 | 0.00 | 35 | 1010.4 |
| 20260508200740 | 58 | 225 | 0.0 | 4.0 | 0.00 | 0.00 | 0.00 | 37 | 1010.5 |
| 20260508200230 | 58 | 225 | 0.0 | 4.0 | 0.00 | 0.00 | 0.00 | 36 | 1010.5 |
| 20260508195721 | 60 | 203 | 0.0 | 4.0 | 0.00 | 0.00 | 0.00 | 35 | 1010.5 |
| 20260508195209 | 59 | 203 | 0.0 | 0.0 | 0.00 | 0.00 | 0.00 | 36 | 1010.5 |
| 20260508194700 | 60 | 225 | 0.0 | 0.0 | 0.00 | 0.00 | 0.00 | 34 | 1010.5 |
| 20260508194149 | 60 | 248 | 0.0 | 0.0 | 0.00 | 0.00 | 0.00 | 35 | 1010.6 |
| 20260508193639 | 60 | 90 | 0.0 | 0.0 | 0.00 | 0.00 | 0.00 | 34 | 1010.6 |
| 20260508193129 | 59 | 248 | 0.0 | 2.0 | 0.00 | 0.00 | 0.00 | 35 | 1010.5 |
| 20260508192618 | 59 | 180 | 0.0 | 4.0 | 0.00 | 0.00 | 0.00 | 35 | 1010.6 |
| 20260508192109 | 59 | 203 | 0.0 | 4.0 | 0.00 | 0.00 | 0.00 | 34 | 1010.5 |
| 20260508191048 | 59 | 203 | 0.0 | 4.0 | 0.00 | 0.00 | 0.00 | 35 | 1010.3 |
| 20260508190539 | 59 | 270 | 0.0 | 7.0 | 0.00 | 0.00 | 0.00 | 35 | 1010.4 |
| 20260508190029 | 58 | 225 | 0.0 | 7.0 | 0.00 | 0.00 | 0.00 | 35 | 1010.6 |
| 20260508185008 | 58 | 225 | 3.0 | 6.0 | 0.00 | 0.00 | 0.00 | 35 | 1010.9 |
| 20260508184458 | 58 | 203 | 0.0 | 6.0 | 0.00 | 0.00 | 0.00 | 36 | 1010.8 |
| 20260508183948 | 58 | 248 | 1.0 | 4.0 | 0.00 | 0.00 | 0.00 | 36 | 1011.0 |
| 20260508183439 | 59 | 248 | 0.0 | 6.0 | 0.00 | 0.00 | 0.00 | 36 | 1010.8 |
| 20260508182928 | 59 | 203 | 2.0 | 6.0 | 0.00 | 0.00 | 0.00 | 35 | 1010.6 |
| 20260508182417 | 59 | 248 | 2.0 | 6.0 | 0.00 | 0.00 | 0.00 | 36 | 1010.8 |
| 20260508181908 | 58 | 225 | 0.0 | 6.0 | 0.00 | 0.00 | 0.00 | 36 | 1010.6 |
| 20260508180847 | 58 | 225 | 0.0 | 7.0 | 0.00 | 0.00 | 0.00 | 35 | 1010.8 |
| 20260508175827 | 58 | 203 | 0.0 | 7.0 | 0.00 | 0.00 | 0.00 | 35 | 1010.8 |
| 20260508175317 | 59 | 225 | 2.0 | 7.0 | 0.00 | 0.00 | 0.00 | 36 | 1011.0 |
| 20260508174807 | 58 | 225 | 0.0 | 6.0 | 0.00 | 0.00 | 0.00 | 36 | 1011.1 |
| 20260508174256 | 59 | 180 | 0.0 | 4.0 | 0.00 | 0.00 | 0.00 | 36 | 1011.0 |
| 20260508173746 | 58 | 248 | 0.0 | 4.0 | 0.00 | 0.00 | 0.00 | 37 | 1011.2 |
| 20260508173237 | 57 | 248 | 0.0 | 4.0 | 0.00 | 0.00 | 0.00 | 36 | 1011.3 |
| 20260508172217 | 58 | 225 | 0.0 | 4.0 | 0.00 | 0.00 | 0.00 | 37 | 1011.7 |
| 20260508171706 | 57 | 248 | 0.0 | 7.0 | 0.00 | 0.00 | 0.00 | 37 | 1011.5 |
| 20260508171156 | 56 | 248 | 0.0 | 7.0 | 0.00 | 0.00 | 0.00 | 42 | 1011.3 |
| 20260508170136 | 57 | 248 | 0.0 | 7.0 | 0.00 | 0.00 | 0.00 | 43 | 1011.7 |
| 20260508165626 | 57 | 158 | 2.0 | 7.0 | 0.00 | 0.00 | 0.00 | 42 | 1012.0 |
| 20260508165115 | 56 | 270 | 0.0 | 8.0 | 0.00 | 0.00 | 0.00 | 45 | 1012.2 |
| 20260508164056 | 56 | 248 | 2.0 | 11.0 | 0.00 | 0.00 | 0.00 | 43 | 1012.2 |
| 20260508163546 | 56 | 225 | 4.0 | 11.0 | 0.00 | 0.00 | 0.00 | 44 | 1012.3 |
| 20260508162525 | 55 | 225 | 4.0 | 11.0 | 0.00 | 0.00 | 0.00 | 46 | 1013.0 |
| 20260508162015 | 55 | 203 | 2.0 | 9.0 | 0.00 | 0.00 | 0.00 | 45 | 1012.7 |
| 20260508161514 | 55 | 225 | 3.0 | 14.0 | 0.00 | 0.00 | 0.00 | 42 | 1012.5 |
| 20260508160955 | 54 | 203 | 7.0 | 14.0 | 0.00 | 0.00 | 0.00 | 44 | 1012.7 |
| 20260508160445 | 54 | 225 | 2.0 | 11.0 | 0.00 | 0.00 | 0.00 | 44 | 1012.8 |
| 20260508155934 | 54 | 225 | 5.0 | 11.0 | 0.00 | 0.00 | 0.00 | 44 | 1013.0 |
| 20260508155424 | 54 | 248 | 4.0 | 11.0 | 0.00 | 0.00 | 0.00 | 43 | 1013.1 |
| 20260508154914 | 54 | 248 | 4.0 | 13.0 | 0.00 | 0.00 | 0.00 | 44 | 1012.8 |
| 20260508152834 | 54 | 225 | 2.0 | 8.0 | 0.00 | 0.00 | 0.00 | 43 | 1013.3 |
| 20260508152324 | 54 | 248 | 2.0 | 8.0 | 0.00 | 0.00 | 0.00 | 44 | 1013.4 |
| 20260508151813 | 53 | 225 | 4.0 | 14.0 | 0.00 | 0.00 | 0.00 | 45 | 1013.5 |
| 20260508151304 | 53 | 225 | 4.0 | 14.0 | 0.00 | 0.00 | 0.00 | 45 | 1013.6 |
| 20260508150244 | 53 | 225 | 2.0 | 11.0 | 0.00 | 0.00 | 0.00 | 43 | 1013.7 |
| 20260508145734 | 53 | 225 | 2.0 | 11.0 | 0.00 | 0.00 | 0.00 | 42 | 1014.0 |
| 20260508144203 | 52 | 225 | 4.0 | 13.0 | 0.00 | 0.00 | 0.00 | 42 | 1014.0 |
| 20260508142634 | 52 | 248 | 9.0 | 16.0 | 0.00 | 0.00 | 0.00 | 42 | 1014.0 |
| 20260508142122 | 51 | 248 | 9.0 | 16.0 | 0.00 | 0.00 | 0.00 | 42 | 1014.2 |
| 20260508141102 | 50 | 225 | 9.0 | 15.0 | 0.00 | 0.00 | 0.00 | 41 | 1014.5 |
| 20260508140552 | 51 | 225 | 4.0 | 14.0 | 0.00 | 0.00 | 0.00 | 41 | 1014.4 |
| 20260508140047 | 50 | 225 | 4.0 | 14.0 | 0.00 | 0.00 | 0.00 | 41 | 1014.6 |
| 20260508135021 | 50 | 225 | 2.0 | 14.0 | 0.00 | 0.00 | 0.00 | 40 | 1014.5 |
| 20260508134513 | 50 | 248 | 6.0 | 14.0 | 0.00 | 0.00 | 0.00 | 39 | 1014.6 |
| 20260508134002 | 49 | 225 | 2.0 | 8.0 | 0.00 | 0.00 | 0.00 | 39 | 1014.8 |
| 20260508133450 | 48 | 225 | 2.0 | 6.0 | 0.00 | 0.00 | 0.00 | 39 | 1014.6 |
| 20260508132714 | 49 | 135 | 3.0 | 11.0 | 0.00 | 0.00 | 0.00 | 38 | 1014.7 |
| 20260508130633 | 47 | 270 | 4.0 | 11.0 | 0.00 | 0.00 | 0.00 | 34 | 1014.7 |
| 20260508130123 | 48 | 225 | 5.0 | 11.0 | 0.00 | 0.00 | 0.00 | 34 | 1014.5 |
| 20260508125614 | 47 | 248 | 3.0 | 11.0 | 0.00 | 0.00 | 0.00 | 35 | 1014.5 |
| 20260508125103 | 46 | 225 | 3.0 | 9.0 | 0.00 | 0.00 | 0.00 | 36 | 1014.6 |
| 20260508124553 | 45 | 248 | 3.0 | 9.0 | 0.00 | 0.00 | 0.00 | 38 | 1014.5 |
| 20260508124043 | 45 | 248 | 2.0 | 9.0 | 0.00 | 0.00 | 0.00 | 39 | 1014.9 |
| 20260508123533 | 45 | 135 | 0.0 | 6.0 | 0.00 | 0.00 | 0.00 | 43 | 1014.7 |
| 20260508123022 | 44 | 203 | 0.0 | 6.0 | 0.00 | 0.00 | 0.00 | 44 | 1014.9 |
| 20260508122002 | 44 | 248 | 1.0 | 7.0 | 0.00 | 0.00 | 0.00 | 44 | 1014.7 |
| 20260508121453 | 44 | 248 | 0.0 | 6.0 | 0.00 | 0.00 | 0.00 | 45 | 1014.5 |
| 20260508120942 | 44 | 203 | 0.0 | 6.0 | 0.00 | 0.00 | 0.00 | 45 | 1014.6 |
| 20260508120432 | 45 | 225 | 1.0 | 6.0 | 0.00 | 0.00 | 0.00 | 45 | 1014.6 |
| 20260508115922 | 44 | 180 | 1.0 | 7.0 | 0.00 | 0.00 | 0.00 | 46 | 1014.7 |
| 20260508115412 | 43 | 248 | 2.0 | 7.0 | 0.00 | 0.00 | 0.00 | 48 | 1014.8 |
| 20260508114903 | 43 | 203 | 0.0 | 4.0 | 0.00 | 0.00 | 0.00 | 51 | 1014.7 |
| 20260508114352 | 42 | 203 | 0.0 | 4.0 | 0.00 | 0.00 | 0.00 | 53 | 1014.6 |
| 20260508113842 | 41 | 248 | 0.0 | 2.0 | 0.00 | 0.00 | 0.00 | 53 | 1014.4 |
| 20260508113331 | 41 | 203 | 0.0 | 2.0 | 0.00 | 0.00 | 0.00 | 54 | 1014.4 |
| 20260508112822 | 40 | 203 | 0.0 | 7.0 | 0.00 | 0.00 | 0.00 | 55 | 1014.4 |
| 20260508112311 | 40 | 68 | 1.0 | 7.0 | 0.00 | 0.00 | 0.00 | 55 | 1014.4 |
| 20260508111250 | 40 | 90 | 0.0 | 2.0 | 0.00 | 0.00 | 0.00 | 56 | 1014.0 |
| 20260508110231 | 40 | 225 | 0.0 | 7.0 | 0.00 | 0.00 | 0.00 | 56 | 1014.1 |
| 20260508105721 | 40 | 248 | 2.0 | 7.0 | 0.00 | 0.00 | 0.00 | 55 | 1013.9 |
| 20260508104702 | 40 | 225 | 0.0 | 7.0 | 0.00 | 0.00 | 0.00 | 55 | 1014.1 |
| 20260508104149 | 40 | 180 | 0.0 | 0.0 | 0.00 | 0.00 | 0.00 | 54 | 1013.9 |
| 20260508103718 | 40 | 248 | 0.0 | 4.0 | 0.00 | 0.00 | 0.00 | 54 | 1014.1 |
| 20260508103208 | 40 | 270 | 0.0 | 4.0 | 0.00 | 0.00 | 0.00 | 54 | 1013.9 |
| 20260508102700 | 41 | 338 | 0.0 | 4.0 | 0.00 | 0.00 | 0.00 | 54 | 1014.0 |
| 20260508102149 | 41 | 225 | 0.0 | 7.0 | 0.00 | 0.00 | 0.00 | 53 | 1014.0 |
| 20260508101640 | 41 | 248 | 0.0 | 7.0 | 0.00 | 0.00 | 0.00 | 53 | 1014.2 |
| 20260508101128 | 41 | 203 | 3.0 | 7.0 | 0.00 | 0.00 | 0.00 | 52 | 1014.0 |
| 20260508095559 | 41 | 248 | 1.0 | 8.0 | 0.00 | 0.00 | 0.00 | 52 | 1014.0 |
| 20260508095048 | 41 | 203 | 2.0 | 8.0 | 0.00 | 0.00 | 0.00 | 52 | 1014.1 |
| 20260508094534 | 41 | 225 | 3.0 | 8.0 | 0.00 | 0.00 | 0.00 | 51 | 1014.1 |
| 20260508094027 | 41 | 203 | 3.0 | 7.0 | 0.00 | 0.00 | 0.00 | 52 | 1014.1 |
| 20260508093517 | 41 | 180 | 0.0 | 7.0 | 0.00 | 0.00 | 0.00 | 53 | 1013.9 |
| 20260508093007 | 41 | 203 | 3.0 | 9.0 | 0.00 | 0.00 | 0.00 | 52 | 1014.0 |
| 20260508092457 | 41 | 225 | 2.0 | 9.0 | 0.00 | 0.00 | 0.00 | 52 | 1014.0 |
| 20260508091947 | 41 | 248 | 2.0 | 8.0 | 0.00 | 0.00 | 0.00 | 52 | 1013.6 |
| 20260508091436 | 41 | 270 | 1.0 | 8.0 | 0.00 | 0.00 | 0.00 | 52 | 1013.7 |
| 20260508090927 | 41 | 203 | 0.0 | 8.0 | 0.00 | 0.00 | 0.00 | 52 | 1013.5 |
| 20260508090417 | 41 | 225 | 1.0 | 7.0 | 0.00 | 0.00 | 0.00 | 52 | 1013.4 |
| 20260508085357 | 41 | 203 | 1.0 | 7.0 | 0.00 | 0.00 | 0.00 | 51 | 1013.6 |
| 20260508084847 | 41 | 225 | 2.0 | 7.0 | 0.00 | 0.00 | 0.00 | 51 | 1013.3 |
| 20260508084337 | 41 | 248 | 2.0 | 7.0 | 0.00 | 0.00 | 0.00 | 51 | 1013.5 |
| 20260508083826 | 41 | 203 | 1.0 | 7.0 | 0.00 | 0.00 | 0.00 | 51 | 1013.5 |
| 20260508083316 | 41 | 203 | 2.0 | 9.0 | 0.00 | 0.00 | 0.00 | 51 | 1013.5 |
| 20260508082806 | 41 | 248 | 2.0 | 9.0 | 0.00 | 0.00 | 0.00 | 51 | 1013.7 |
| 20260508082256 | 41 | 203 | 2.0 | 11.0 | 0.00 | 0.00 | 0.00 | 51 | 1013.5 |
| 20260508080215 | 42 | 225 | 3.0 | 8.0 | 0.00 | 0.00 | 0.00 | 49 | 1013.2 |
| 20260508075705 | 42 | 225 | 2.0 | 8.0 | 0.00 | 0.00 | 0.00 | 49 | 1013.1 |
| 20260508075155 | 42 | 203 | 2.0 | 9.0 | 0.00 | 0.00 | 0.00 | 49 | 1013.3 |
| 20260508074646 | 42 | 203 | 4.0 | 13.0 | 0.00 | 0.00 | 0.00 | 48 | 1012.8 |
| 20260508074135 | 42 | 203 | 2.0 | 13.0 | 0.00 | 0.00 | 0.00 | 49 | 1013.4 |
| 20260508073624 | 42 | 225 | 4.0 | 11.0 | 0.00 | 0.00 | 0.00 | 48 | 1013.1 |
| 20260508072604 | 42 | 203 | 4.0 | 11.0 | 0.00 | 0.00 | 0.00 | 48 | 1013.3 |
| 20260508072054 | 42 | 203 | 3.0 | 9.0 | 0.00 | 0.00 | 0.00 | 48 | 1013.2 |
| 20260508071544 | 42 | 248 | 3.0 | 8.0 | 0.00 | 0.00 | 0.00 | 48 | 1013.3 |
| 20260508071034 | 42 | 270 | 3.0 | 9.0 | 0.00 | 0.00 | 0.00 | 48 | 1013.3 |
| 20260508070524 | 42 | 248 | 4.0 | 11.0 | 0.00 | 0.00 | 0.00 | 47 | 1013.6 |
| 20260508065503 | 42 | 203 | 4.0 | 9.0 | 0.00 | 0.00 | 0.00 | 47 | 1013.4 |
| 20260508064446 | 42 | 225 | 1.0 | 9.0 | 0.00 | 0.00 | 0.00 | 47 | 1013.6 |
| 20260508063933 | 42 | 203 | 2.0 | 9.0 | 0.00 | 0.00 | 0.00 | 48 | 1013.6 |
| 20260508063422 | 42 | 180 | 2.0 | 0.0 | 0.00 | 0.00 | 0.00 | 48 | 1013.9 |
| 20260508063206 | 42 | 270 | 1.0 | 0.0 | 0.00 | 0.00 | 0.00 | 49 | 1013.9 |
| 20260508063005 | 42 | 270 | 1.0 | 7.0 | 0.00 | 0.00 | 0.00 | 48 | 1013.9 |
| 20260508062454 | 42 | 225 | 1.0 | 6.0 | 0.00 | 0.00 | 0.00 | 49 | 1013.8 |
| 20260508061944 | 42 | 225 | 1.0 | 7.0 | 0.00 | 0.00 | 0.00 | 48 | 1014.0 |
| 20260508060924 | 42 | 203 | 0.0 | 6.0 | 0.00 | 0.00 | 0.00 | 48 | 1014.0 |
| 20260508060414 | 42 | 180 | 1.0 | 6.0 | 0.00 | 0.00 | 0.00 | 48 | 1014.0 |
| 20260508055904 | 42 | 203 | 0.0 | 6.0 | 0.00 | 0.00 | 0.00 | 47 | 1014.1 |
| 20260508055354 | 42 | 225 | 1.0 | 7.0 | 0.00 | 0.00 | 0.00 | 47 | 1014.2 |
| 20260508054844 | 43 | 225 | 0.0 | 7.0 | 0.00 | 0.00 | 0.00 | 45 | 1014.2 |
| 20260508054334 | 42 | 248 | 0.0 | 7.0 | 0.00 | 0.00 | 0.00 | 47 | 1014.2 |
| 20260508053823 | 42 | 270 | 1.0 | 7.0 | 0.00 | 0.00 | 0.00 | 46 | 1014.4 |
| 20260508053313 | 42 | 203 | 0.0 | 7.0 | 0.00 | 0.00 | 0.00 | 46 | 1014.6 |
| 20260508052803 | 43 | 248 | 2.0 | 7.0 | 0.00 | 0.00 | 0.00 | 45 | 1014.5 |
| 20260508052253 | 42 | 248 | 0.0 | 4.0 | 0.00 | 0.00 | 0.00 | 47 | 1014.8 |
| 20260508051233 | 42 | 203 | 0.0 | 4.0 | 0.00 | 0.00 | 0.00 | 47 | 1014.8 |
| 20260508050723 | 43 | 225 | 0.0 | 6.0 | 0.00 | 0.00 | 0.00 | 45 | 1014.9 |
| 20260508050212 | 43 | 270 | 0.0 | 6.0 | 0.00 | 0.00 | 0.00 | 45 | 1014.8 |
| 20260508045704 | 43 | 248 | 0.0 | 4.0 | 0.00 | 0.00 | 0.00 | 45 | 1015.0 |
| 20260508045152 | 43 | 225 | 0.0 | 0.0 | 0.00 | 0.00 | 0.00 | 46 | 1015.1 |
| 20260508044643 | 43 | 270 | 0.0 | 4.0 | 0.00 | 0.00 | 0.00 | 46 | 1015.3 |
| 20260508044132 | 43 | 203 | 0.0 | 4.0 | 0.00 | 0.00 | 0.00 | 45 | 1015.1 |
| 20260508043622 | 44 | 225 | 0.0 | 4.0 | 0.00 | 0.00 | 0.00 | 44 | 1015.1 |
| 20260508043112 | 44 | 225 | 0.0 | 4.0 | 0.00 | 0.00 | 0.00 | 44 | 1015.0 |
| 20260508042602 | 44 | 225 | 0.0 | 4.0 | 0.00 | 0.00 | 0.00 | 43 | 1015.2 |
| 20260508041539 | 45 | 203 | 0.0 | 8.0 | 0.00 | 0.00 | 0.00 | 42 | 1015.4 |
| 20260508041032 | 45 | 225 | 1.0 | 7.0 | 0.00 | 0.00 | 0.00 | 41 | 1015.1 |
| 20260508040521 | 45 | 158 | 1.0 | 6.0 | 0.00 | 0.00 | 0.00 | 40 | 1015.1 |
| 20260508035501 | 46 | 203 | 0.0 | 6.0 | 0.00 | 0.00 | 0.00 | 40 | 1015.1 |
| 20260508034951 | 46 | 225 | 1.0 | 7.0 | 0.00 | 0.00 | 0.00 | 40 | 1015.2 |
| 20260508034440 | 45 | 203 | 0.0 | 7.0 | 0.00 | 0.00 | 0.00 | 40 | 1015.2 |
| 20260508033931 | 46 | 225 | 2.0 | 7.0 | 0.00 | 0.00 | 0.00 | 38 | 1015.0 |
| 20260508033420 | 46 | 180 | 0.0 | 6.0 | 0.00 | 0.00 | 0.00 | 39 | 1014.9 |
| 20260508032910 | 46 | 248 | 0.0 | 4.0 | 0.00 | 0.00 | 0.00 | 38 | 1015.0 |
| 20260508032400 | 46 | 248 | 0.0 | 8.0 | 0.00 | 0.00 | 0.00 | 38 | 1014.8 |
| 20260508031850 | 47 | 203 | 0.0 | 8.0 | 0.00 | 0.00 | 0.00 | 37 | 1014.7 |
| 20260508031340 | 47 | 225 | 1.0 | 4.0 | 0.00 | 0.00 | 0.00 | 36 | 1014.7 |
| 20260508030831 | 47 | 225 | 0.0 | 6.0 | 0.00 | 0.00 | 0.00 | 36 | 1014.6 |
| 20260508030320 | 48 | 248 | 0.0 | 6.0 | 0.00 | 0.00 | 0.00 | 35 | 1014.4 |
| 20260508025300 | 48 | 225 | 2.0 | 8.0 | 0.00 | 0.00 | 0.00 | 33 | 1014.5 |
| 20260508024749 | 48 | 248 | 0.0 | 4.0 | 0.00 | 0.00 | 0.00 | 34 | 1014.4 |
| 20260508024239 | 47 | 203 | 0.0 | 2.0 | 0.00 | 0.00 | 0.00 | 35 | 1014.2 |
| 20260508023730 | 47 | 225 | 0.0 | 4.0 | 0.00 | 0.00 | 0.00 | 35 | 1014.0 |
| 20260508023219 | 47 | 203 | 0.0 | 4.0 | 0.00 | 0.00 | 0.00 | 35 | 1013.8 |
| 20260508022708 | 47 | 203 | 0.0 | 2.0 | 0.00 | 0.00 | 0.00 | 35 | 1013.8 |